Regional Weather Roundup
Issued by NWS

Home | Current Version | Previous Version | Text Only | Print | Product List | Glossary On
Versions: 1 2 3 4 5 6 7 8 9 10 11 12 13 14 15 16 17 18 19 20 21 22 23 24 25 26 27 28 29 30 31 32 33 34 35 36 37 38 39 40 41 42 43 44 45 46 47 48 49 50
000
ASUS44 KFWD 040501
RWRTX
NORTH TEXAS HOURLY WEATHER ROUNDUP
NATIONAL WEATHER SERVICE FORT WORTH TX
1200 AM CDT MON MAY 04 2015

NOTE: "FAIR" INDICATES FEW OR NO CLOUDS BELOW 12,000 FEET WITH NO
SIGNIFICANT WEATHER AND/OR OBSTRUCTIONS TO VISIBILITY.

TXZ118-119-040600-
DALLAS/FORT WORTH METROPLEX

CITY           SKY/WX    TMP DP  RH WIND       PRES   REMARKS
DFW AIRPORT    MOCLDY    69  58  67 S8        29.98R
DALLAS LOVE    MOCLDY    72  57  59 SE14      29.99R
FTW MEACHAM    PTCLDY    68  58  70 S8        29.98R
DAL-EXECUTIVE  CLEAR     68  58  70 S8        29.98S
FTW-ALLIANCE   PTCLDY    67  58  72 S8        29.97R
FTW-NAS-JRB    PTCLDY    71  57  61 S9        29.98R
ARLINGTON      CLEAR     69  57  65 SE7       29.99R
GRAND PRAIRIE  CLEAR     70  59  68 SE8       30.00S
MESQUITE       CLEAR     66  58  73 SE7       30.00R
LANCASTER      CLEAR     64  57  80 SE5       30.00S
$$

TXZ091>094-102>105-117-120-121-131>134-040600-
NORTH CENTRAL TEXAS

CITY           SKY/WX    TMP DP  RH WIND       PRES   REMARKS
SHRMAN/DENISON CLEAR     69  60  73 SE10      30.00S
BRIDGEPORT     MOCLDY    69  58  68 S10       29.98S
DECATUR        MOCLDY    69  56  65 S9        29.97F
DENTON         MOCLDY    68  59  73 S10       29.97S
MCKINNEY       PTCLDY    66  58  75 S5        30.00R
ROCKWALL       CLEAR     68  57  68 SE8       29.99R
TERRELL        CLEAR     73  57  57 SE8       30.00S
WAXAHACHIE     CLEAR     66  59  80 SE5       30.01S
GRANBURY       MOCLDY    69  56  64 SE6       30.00R
$$

TXZ083>090-098>101-113>116-127>130-139>142-154-155-040600-
WESTERN NORTH TEXAS

CITY           SKY/WX    TMP DP  RH WIND       PRES   REMARKS
WICHITA FALLS  CLOUDY    68  58  70 S13       29.94S
WF-KICKAPOO    CLOUDY    69  59  70 SE12      29.95S
ABILENE        PTCLDY    70  54  56 S15       29.96S
ABILENE-DYESS  MOCLDY    70  56  61 S15       29.94S
BRECKENRIDGE   CLOUDY    71  54  55 SE13      29.96S
MINERAL WELLS  PTCLDY    66  58  75 S9        29.97R
STEPHENVILLE   PTCLDY    65  55  69 SE3       30.02S
COMANCHE       PTCLDY    64  56  76 S6        30.00S
$$

TXZ143>147-156>162-174-175-040600-
CENTRAL TEXAS

CITY           SKY/WX    TMP DP  RH WIND       PRES   REMARKS
WACO           CLEAR     70  60  70 S14       30.00R
WACO-MCGREGOR  CLEAR     70  55  60 S10       30.02R
CORSICANA      CLEAR     70  61  73 S14       30.02R
MEXIA          CLEAR     69  62  80 SE17      30.02R
HEARNE         CLEAR     69  63  80 SE9       30.04R
TEMPLE         PTCLDY    70  57  64 S14       30.00S
KILLEEN        PTCLDY    70  63  78 S16G22    30.01R
KILLEEN-SKYLRK PTCLDY    70  59  68 S13G20    30.01S
FORT HOOD      PTCLDY    70  62  75 S14G20    30.00
HAMILTON       PTCLDY    65  57  73 SE12      30.01R
$$

TXZ095>097-106>112-122>126-135>138-148>153-164>167-040600-
EAST TEXAS

CITY           SKY/WX    TMP DP  RH WIND       PRES   REMARKS
PARIS          CLEAR     64  54  68 MISG      30.02S
SULPHUR SPRNGS CLEAR     67  56  67 SE7       30.03S
MINEOLA        CLEAR     64  59  82 SE3       30.02S
TYLER          CLEAR     68  57  68 S8        30.02S
LONGVIEW       CLEAR     68  57  68 S10       30.02F
ATHENS         CLEAR     66  59  77 S7        30.01S
PALESTINE      MOCLDY    69  62  78 SE5       30.04S
JACKSONVILLE   CLEAR     67  58  74 S6        30.06S
NACOGDOCHES    CLEAR     64  57  77 S5        30.05S
LUFKIN         CLEAR     67  59  75 S3        30.05S
$$

SUPPLEMENTAL OBSERVATIONS (CENTRAL)

CITY           SKY/WX    TMP DP  RH WIND       PRES   REMARKS
$$

SUPPLEMENTAL OBSERVATIONS (WEST)

CITY           SKY/WX    TMP DP  RH WIND       PRES   REMARKS
$$

SUPPLEMENTAL OBSERVATIONS (EAST)

CITY           SKY/WX    TMP DP  RH WIND       PRES   REMARKS
$$

SUPPLEMENTAL OBSERVATIONS ARE A COLLECTION OF AUTOMATED INSTRUMENTS
THAT ARE MAINTAINED BY A VARIETY OF FEDERAL AND STATE AGENCIES.
CERTAIN ELEMENTS...SUCH AS HUMIDITY VALUES AND SUSTAINED WIND
SPEEDS...MAY BE APPROXIMATED.




USA.gov is the U.S. government's official web portal to all federal, state and local government web resources and services.